User: anonymous   Login
Location: Cisewo
(53.3833°N, 14.9000°E)
Time: 13:01:39
(UTC+00:00)
Language:

Oscar 19 - Orbit

View from above orbital plane
View from above orbital plane
View from above satellite
View from above satellite

Ground track
Ground track

The orbit data is extracted from the following two-line orbital elements,

1 20442U 90005G   21266.86884599  .00000019  00000-0  23415-4 0  9999
2 20442  98.7517 223.2777 0010829 228.6752 131.3500 14.32997894654928
Epoch (UTC): 23 September 2021 20:51:08
Eccentricity: 0.0010829
inclination: 98.7517°
perigee height: 774 km
apogee height: 789 km
right ascension of ascending node: 223.2777°
argument of perigee: 228.6752°
revolutions per day: 14.32997894
mean anomaly at epoch: 131.3500°
orbit number at epoch: 65492

The dashed part of the orbit path shows where the satellite is in the earth's shadow,  

DLR